When you browse on this site, cookies collect data to enhance your experience and personalize the content and advertising you see.
Visit our Privacy Policy to learn more. By continuing to use the site, you agree to this use of cookies and data.
  • In Latvia
  • List of Countries
  • For 7 days
  • Water Temperature
  • Weather Map
  • Weather Widgets
  • user-avatar
    Login

    Hourly Weather Hulakivka

    Today, 30 March, Monday

    Time Temperature Precipitation Wind Pressure Humidity
    00:00 +10°C° 0 mm 1 mps 742 mmHg 65%
    01:00 +9°C° 0 mm 1 mps 742 mmHg 65%
    02:00 +8°C° 0 mm 2 mps 742 mmHg 63%
    03:00 +9°C° 0 mm 1 mps 742 mmHg 63%
    04:00 +9°C° 0 mm 1 mps 742 mmHg 64%
    05:00 +8°C° 0 mm 1 mps 742 mmHg 64%
    06:00 +8°C° 0 mm 2 mps 743 mmHg 64%
    07:00 +9°C° 0 mm 2 mps 743 mmHg 63%
    08:00 +9°C° 0 mm 3 mps 743 mmHg 62%
    09:00 +10°C° 0 mm 4 mps 743 mmHg 62%
    10:00 +10°C° 0 mm 5 mps 744 mmHg 63%
    11:00 +12°C° 0 mm 5 mps 744 mmHg 63%
    12:00 +11°C° 0 mm 6 mps 744 mmHg 65%
    13:00 +10°C° 0 mm 7 mps 744 mmHg 66%
    14:00 +10°C° 0 mm 7 mps 744 mmHg 67%
    15:00 +9°C° 0 mm 7 mps 745 mmHg 66%
    16:00 +9°C° 0 mm 6 mps 745 mmHg 64%
    17:00 +8°C° 0 mm 6 mps 746 mmHg 63%
    18:00 +7°C° 0 mm 6 mps 746 mmHg 64%
    19:00 +5°C° 0 mm 6 mps 747 mmHg 64%
    20:00 +4°C° 0 mm 6 mps 747 mmHg 65%
    21:00 +3°C° 0 mm 6 mps 748 mmHg 66%
    22:00 +2°C° 0 mm 5 mps 748 mmHg 67%
    23:00 +2°C° 0 mm 5 mps 748 mmHg 68%

    Tomorrow, 31 March, Tuesday

    Time Temperature Precipitation Wind Pressure Humidity
    00:00 +1°C° 0 mm 5 mps 749 mmHg 69%
    01:00 +1°C° 0 mm 5 mps 749 mmHg 70%
    02:00 0°C° 0 mm 5 mps 749 mmHg 71%
    03:00 0°C° 0 mm 5 mps 750 mmHg 73%
    04:00 -1°C° 0 mm 5 mps 750 mmHg 75%
    05:00 -2°C° 0 mm 5 mps 750 mmHg 77%
    06:00 -2°C° 0 mm 5 mps 750 mmHg 73%
    07:00 -3°C° 0 mm 6 mps 751 mmHg 69%
    08:00 -2°C° 0 mm 6 mps 751 mmHg 66%
    09:00 -2°C° 0 mm 6 mps 752 mmHg 62%
    10:00 -1°C° 0 mm 6 mps 752 mmHg 59%
    11:00 -1°C° 0 mm 6 mps 752 mmHg 56%
    12:00 +1°C° 0 mm 6 mps 753 mmHg 53%
    13:00 +1°C° 0 mm 6 mps 753 mmHg 51%
    14:00 +2°C° 0 mm 6 mps 753 mmHg 48%
    15:00 +2°C° 0 mm 6 mps 753 mmHg 45%
    16:00 +2°C° 0 mm 6 mps 753 mmHg 42%
    17:00 +1°C° 0 mm 6 mps 753 mmHg 39%
    18:00 +1°C° 0 mm 5 mps 754 mmHg 43%
    19:00 0°C° 0 mm 4 mps 754 mmHg 46%
    20:00 -1°C° 0 mm 4 mps 755 mmHg 49%
    21:00 -1°C° 0 mm 3 mps 755 mmHg 53%
    22:00 -1°C° 0 mm 3 mps 755 mmHg 56%
    23:00 -2°C° 0 mm 3 mps 756 mmHg 60%

    Day after tomorrow, 1 April, Wednesday

    Time Temperature Precipitation Wind Pressure Humidity
    00:00 -2°C° 0 mm 3 mps 756 mmHg 60%
    01:00 -2°C° 0 mm 3 mps 756 mmHg 60%
    02:00 -4°C° 0 mm 3 mps 756 mmHg 60%
    03:00 -3°C° 0 mm 2 mps 756 mmHg 58%
    04:00 -3°C° 0 mm 2 mps 756 mmHg 56%
    05:00 -3°C° 0 mm 2 mps 756 mmHg 54%
    06:00 -2°C° 0 mm 2 mps 756 mmHg 47%
    07:00 -1°C° 0 mm 2 mps 756 mmHg 41%
    08:00 0°C° 0 mm 3 mps 756 mmHg 34%
    09:00 +1°C° 0 mm 3 mps 755 mmHg 35%
    10:00 +1°C° 0 mm 4 mps 755 mmHg 36%
    11:00 +4°C° 0 mm 4 mps 755 mmHg 37%
    12:00 +4°C° 0 mm 4 mps 754 mmHg 35%
    13:00 +5°C° 0 mm 5 mps 754 mmHg 34%
    14:00 +6°C° 0 mm 5 mps 753 mmHg 32%
    15:00 +6°C° 0 mm 5 mps 753 mmHg 33%
    16:00 +6°C° 0 mm 5 mps 752 mmHg 34%
    17:00 +6°C° 0 mm 5 mps 752 mmHg 35%
    18:00 +5°C° 0 mm 5 mps 752 mmHg 39%
    19:00 +4°C° 0 mm 4 mps 752 mmHg 43%
    20:00 +3°C° 0 mm 4 mps 752 mmHg 47%
    21:00 +1°C° 0 mm 4 mps 752 mmHg 50%
    22:00 +1°C° 0 mm 4 mps 752 mmHg 53%
    23:00 0°C° 0 mm 4 mps 751 mmHg 55%

    2 April, Thursday

    Time Temperature Precipitation Wind Pressure Humidity
    00:00 0°C° 0 mm 4 mps 751 mmHg 57%
    01:00 0°C° 0 mm 4 mps 751 mmHg 59%
    02:00 -1°C° 0 mm 4 mps 751 mmHg 60%
    03:00 -1°C° 0 mm 4 mps 751 mmHg 60%
    04:00 -1°C° 0 mm 4 mps 751 mmHg 61%
    05:00 -2°C° 0 mm 4 mps 750 mmHg 61%
    06:00 0°C° 0 mm 5 mps 750 mmHg 56%
    07:00 +1°C° 0 mm 5 mps 750 mmHg 51%
    08:00 +2°C° 0 mm 6 mps 750 mmHg 45%
    09:00 +3°C° 0 mm 6 mps 750 mmHg 43%
    10:00 +5°C° 0 mm 6 mps 750 mmHg 41%
    11:00 +6°C° 0 mm 7 mps 749 mmHg 38%
    12:00 +8°C° 0 mm 7 mps 749 mmHg 38%
    13:00 +8°C° 0 mm 7 mps 749 mmHg 37%
    14:00 +9°C° 0 mm 8 mps 749 mmHg 36%
    15:00 +9°C° 0 mm 7 mps 749 mmHg 38%
    16:00 +9°C° 0 mm 6 mps 748 mmHg 40%
    17:00 +8°C° 0 mm 6 mps 748 mmHg 41%
    18:00 +7°C° 0 mm 4 mps 748 mmHg 46%
    19:00 +7°C° 0 mm 3 mps 748 mmHg 51%
    20:00 +6°C° 0 mm 2 mps 749 mmHg 56%
    21:00 +6°C° 0 mm 2 mps 749 mmHg 58%
    22:00 +5°C° 0 mm 2 mps 749 mmHg 60%
    23:00 +5°C° 0 mm 2 mps 749 mmHg 62%

    3 April, Friday

    Time Temperature Precipitation Wind Pressure Humidity
    00:00 +4°C° 0 mm 2 mps 749 mmHg 64%
    01:00 +4°C° 0 mm 2 mps 749 mmHg 66%
    02:00 +2°C° 0 mm 3 mps 749 mmHg 68%
    03:00 +2°C° 0 mm 3 mps 749 mmHg 70%
    04:00 +2°C° 0 mm 3 mps 749 mmHg 72%
    05:00 +1°C° 0 mm 3 mps 749 mmHg 74%
    06:00 +3°C° 0 mm 3 mps 749 mmHg 69%
    07:00 +4°C° 0 mm 3 mps 749 mmHg 64%
    08:00 +5°C° 0 mm 4 mps 749 mmHg 59%
    09:00 +7°C° 0 mm 5 mps 749 mmHg 52%
    10:00 +8°C° 0 mm 5 mps 748 mmHg 45%
    11:00 +10°C° 0 mm 6 mps 748 mmHg 38%
    12:00 +11°C° 0 mm 6 mps 748 mmHg 36%
    13:00 +11°C° 0 mm 6 mps 747 mmHg 33%
    14:00 +12°C° 0 mm 7 mps 747 mmHg 31%
    15:00 +11°C° 0 mm 6 mps 747 mmHg 33%
    16:00 +11°C° 0 mm 6 mps 746 mmHg 35%
    17:00 +11°C° 0 mm 6 mps 746 mmHg 36%
    18:00 +10°C° 0 mm 6 mps 746 mmHg 40%
    19:00 +9°C° 0 mm 5 mps 747 mmHg 44%
    20:00 +8°C° 0 mm 5 mps 747 mmHg 48%
    21:00 +8°C° 0 mm 5 mps 747 mmHg 51%
    22:00 +7°C° 0 mm 4 mps 747 mmHg 55%
    23:00 +6°C° 0 mm 4 mps 748 mmHg 58%

    4 April, Saturday

    Time Temperature Precipitation Wind Pressure Humidity
    00:00 +7°C° 0 mm 3 mps 748 mmHg 62%
    01:00 +7°C° 0 mm 3 mps 748 mmHg 67%
    02:00 +6°C° 0 mm 2 mps 748 mmHg 71%
    03:00 +6°C° 0 mm 2 mps 749 mmHg 73%
    04:00 +5°C° 0 mm 2 mps 749 mmHg 74%
    05:00 +4°C° 0 mm 3 mps 750 mmHg 76%
    06:00 +4°C° 0 mm 3 mps 750 mmHg 70%
    07:00 +5°C° 0 mm 4 mps 751 mmHg 65%
    08:00 +5°C° 0 mm 4 mps 751 mmHg 59%
    09:00 +6°C° 0 mm 4 mps 752 mmHg 55%
    10:00 +7°C° 0 mm 5 mps 752 mmHg 51%
    11:00 +7°C° 0 mm 5 mps 752 mmHg 47%
    12:00 +8°C° 0 mm 5 mps 753 mmHg 44%
    13:00 +8°C° 0 mm 6 mps 753 mmHg 41%
    14:00 +8°C° 0 mm 6 mps 754 mmHg 38%
    15:00 +8°C° 0 mm 6 mps 754 mmHg 39%
    16:00 +6°C° 0 mm 7 mps 754 mmHg 40%
    17:00 +5°C° 0 mm 7 mps 755 mmHg 41%
    18:00 +4°C° 0 mm 6 mps 755 mmHg 43%
    19:00 +3°C° 0 mm 5 mps 756 mmHg 45%
    20:00 +2°C° 0 mm 5 mps 757 mmHg 48%
    21:00 +3°C° 0 mm 4 mps 758 mmHg 50%
    22:00 +1°C° 0 mm 4 mps 758 mmHg 53%
    23:00 +2°C° 0 mm 3 mps 759 mmHg 55%
    Show more